Regional Weather Roundup
Issued by NWS Midland/Odessa, TX

Home | Current Version | Previous Version | Text Only | Print | Product List | Glossary On
Versions: 1 2 3 4 5 6 7 8 9 10 11 12 13 14 15 16 17 18 19 20 21 22 23 24 25 26 27 28 29 30 31 32 33 34 35 36 37 38 39 40 41 42 43 44 45 46 47 48 49 50
000
ASUS44 KMAF 280510
RWRMAF
MIDLAND AREA WEATHER ROUNDUP
NATIONAL WEATHER SERVICE MIDLAND TX
1200 AM CDT SAT MAR 28 2015

...IN SOUTHWEST TEXAS AND SOUTHEAST NEW MEXICO...

CITY           SKY/WX    TMP DP  RH WIND       PRES   REMARKS
ALPINE         CLEAR     55  25  30 SW7       30.28R
ANDREWS        FAIR      62  32  32 S14       30.12F
ARTESIA        CLEAR     55  27  33 W15       30.09F
BIG SPRING     CLEAR     61  31  32 SE13      30.13S
CARLSBAD       CLEAR     58  31  35 SW12      30.08S
DRYDEN           N/A     61  39  44 NE5       30.13S
FORT STOCKTON  CLEAR     62  29  28 S12       30.13S
GUAD PASS      CLEAR     61  18  18 SW14      30.24R
HOBBS          CLEAR     55  25  30 S7        30.13S
MARFA          CLEAR     43  30  61 N5        30.26S
MIDLAND AIRPK  CLEAR     65  32  29 S16       30.12S
MIDLAND INTL   CLEAR     64  35  34 S14       30.12S
ODESSA         CLEAR     64  33  31 S16       30.12F
PECOS          CLEAR     53  37  54 S3        30.10S
PRESIDIO       FAIR      62  32  32 N8        30.15S
SEMINOLE       CLEAR     58  30  34 S8        30.12S
SNYDER         CLEAR     56  38  51 E10       30.13S
WINK           CLEAR     55  34  45 SE12      30.09S
$$
...OTHER STATIONS IN TEXAS...

CITY           SKY/WX    TMP DP  RH WIND       PRES   REMARKS
ABILENE        CLEAR     57  40  52 SE9       30.14S
AMARILLO       CLEAR     50  33  52 SE9       30.13S
AUSTIN         CLEAR     50  44  80 CALM      30.15S
BROWNSVILLE    CLEAR     56  52  86 S3        30.22S
CORPUS CHRISTI CLEAR     60  55  83 S8        30.17F
DALLAS FTW     MOCLDY    52  39  61 E6        30.16S
DEL RIO        CLEAR     63  39  41 SE8       30.13S
EL PASO        CLEAR     65  18  16 S9        30.14S
HOUSTON INT    CLEAR     56  47  71 CALM      30.15S
LUBBOCK        CLEAR     55  36  48 SE15      30.10F
SAN ANGELO     CLEAR     58  37  45 S7        30.12F
SAN ANTONIO    CLEAR     61  41  47 N3        30.15S
WACO           CLEAR     52  43  71 E6        30.16S
WICHITA FALLS  NOT AVBL
$$
...OTHER LOCATIONS IN NEW MEXICO...

CITY           SKY/WX    TMP DP  RH WIND       PRES   REMARKS
ALAMAGORDO     PTCLDY    55  19  24 SE8       30.15S
ALBUQUERQUE    CLEAR     62  16  16 NE6       30.19R
CANNON AFB     CLEAR     50  31  48 S6        30.12
CLOVIS         CLEAR     50  30  46 S10       30.12S
HOLLOMAN AFB   PTCLDY    57  19  23 SE8       30.13S
ROSWELL        CLEAR     51  32  48 SW8       30.09S
RUIDOSO        CLEAR     52  16  24 W14       30.28S
SANTA FE       CLEAR     51  16  24 NE9       30.22R
TRUTH OR CONSE CLEAR     55  21  26 NW7       30.16R
TUCUMCARI      CLEAR     54  28  36 SW3       30.07S
$$


USA.gov is the U.S. government's official web portal to all federal, state and local government web resources and services.